Change the Weather History Date:

Monday, November 19, 2012

  Actual Average Record
Temperature  
Mean Temperature 86 °F -  
Max Temperature 95 °F 92 °F 98 °F (1998)
Min Temperature 77 °F 71 °F 62 °F (1996)
Cooling Degree Days 21    
Growing Degree Days 36 (Base 50)    
Moisture  
Dew Point 64 °F    
Average Humidity 50    
Maximum Humidity 74    
Minimum Humidity 24    
Precipitation  
Precipitation 0.00 in - - ()
Sea Level Pressure  
Sea Level Pressure 29.87 in    
Wind  
Wind Speed 1 mph ()    
Max Wind Speed 6 mph    
Max Gust Speed -    
Visibility 6.1 miles    
Events      
Averages and records for this station are not official NWS values.
T = Trace of Precipitation, MM = Missing Value Source: Averaged Metar Reports

Daily Weather History Graph

Daily Weather History Graph

Search for Another Location

Airport or City:

Trip Planner

Search our weather history database for the weather conditions in past years. The results will help you decide how hot, cold, wet, or windy it might be!

Date:

Astronomy

Nov. 19, 2012 Rise Set
Actual Time 6:33 AM AST 5:37 PM AST
Civil Twilight 6:10 AM AST 6:00 PM AST
Nautical Twilight 5:42 AM AST 6:27 PM AST
Astronomical Twilight 5:16 AM AST 6:54 PM AST
Moon 11:36 AM AST (11/19) 11:23 PM AST (11/19)
Length of Visible Light 11h 50m
Length of Day
11h 03m
Waxing Crescent, 37% of the Moon is Illuminated
Nov 19
Waxing Crescent
Nov 20
First Quarter
Nov 28
Full
Dec 6
Last Quarter
Dec 13
New

Hourly Weather History & Observations

Time (AST) Temp. Heat Index Dew Point Humidity Pressure Visibility Wind Dir Wind Speed Gust Speed Precip Events Conditions
12:00 AM 82 °F - 66 °F 50% 29.84 in 6 mi Calm Calm - -   Scattered Clouds
12:00 AM 82.4 °F 84.6 °F 66.2 °F 58% 29.89 in 6.2 mi Calm Calm - N/A   Partly Cloudy
1:00 AM 82.4 °F 85.4 °F 68.0 °F 62% 29.89 in 6.2 mi Calm Calm - N/A   Partly Cloudy
2:00 AM 80.6 °F 83.9 °F 69.8 °F 70% 29.86 in 6.2 mi Calm Calm - N/A   Scattered Clouds
3:00 AM 81 °F - 72 °F 66% 29.81 in 6 mi Calm Calm - -   Partly Cloudy
3:00 AM 80.6 °F 84.6 °F 71.6 °F 74% 29.86 in 6.2 mi Calm Calm - N/A   Scattered Clouds
4:00 AM 80.6 °F 84.6 °F 71.6 °F 74% 29.86 in 6.2 mi Calm Calm - N/A   Partly Cloudy
5:00 AM 80.6 °F 84.6 °F 71.6 °F 74% 29.86 in 6.2 mi Calm Calm - N/A   Scattered Clouds
6:00 AM 80 °F - 70 °F 64% 29.83 in 6 mi Calm Calm - -   Partly Cloudy
6:00 AM 78.8 °F - 69.8 °F 74% 29.86 in 6.2 mi Calm Calm - N/A   Scattered Clouds
7:00 AM 78.8 °F - 64.4 °F 61% 29.89 in 6.2 mi Calm Calm - N/A   Partly Cloudy
8:00 AM 78.8 °F - 66.2 °F 65% 29.92 in - Calm Calm - N/A   Clear
9:00 AM 82 °F - 66 °F 50% 29.88 in 6 mi Calm Calm - -   Partly Cloudy
9:00 AM 82.4 °F 84.6 °F 66.2 °F 58% 29.92 in - Calm Calm - N/A   Clear
10:00 AM 84.2 °F 85.0 °F 62.6 °F 48% 29.92 in - Calm Calm - N/A   Clear
11:00 AM 87.8 °F 89.4 °F 64.4 °F 46% 29.89 in 6.2 mi Calm Calm - N/A   Partly Cloudy
12:00 PM 90 °F - 63 °F 30% 29.83 in 6 mi Calm Calm - -   Mostly Cloudy
12:00 PM 89.6 °F 90.1 °F 62.6 °F 40% 29.89 in 6.2 mi Calm Calm - N/A   Scattered Clouds
1:00 PM 87.8 °F 89.4 °F 64.4 °F 46% 29.86 in 6.2 mi Calm Calm - N/A   Scattered Clouds
2:00 PM 91.4 °F 93.2 °F 64.4 °F 41% 29.83 in 6.2 mi Calm Calm - N/A   Scattered Clouds
3:00 PM 93 °F - 61 °F 24% 29.79 in 6 mi WSW 4.6 mph - -   Mostly Cloudy
3:00 PM 93.2 °F 93.3 °F 60.8 °F 34% 29.83 in 6.2 mi WSW 4.6 mph - N/A   Scattered Clouds
4:00 PM 91.4 °F 92.1 °F 62.6 °F 38% 29.83 in 6.2 mi South 4.6 mph - N/A   Scattered Clouds
5:00 PM 89.6 °F 89.5 °F 60.8 °F 38% 29.83 in 6.2 mi SSW 4.6 mph - N/A   Scattered Clouds
6:00 PM 88 °F - 61 °F 30% 29.81 in 6 mi South 5.8 mph - -   Partly Cloudy
6:00 PM 87.8 °F 87.6 °F 60.8 °F 40% 29.86 in 6.2 mi South 5.8 mph - N/A   Scattered Clouds
7:00 PM 86.0 °F 84.9 °F 57.2 °F 37% 29.86 in 6.2 mi West 3.5 mph - N/A   Scattered Clouds
8:00 PM 84.2 °F 85.6 °F 64.4 °F 51% 29.89 in 6.2 mi NW 3.5 mph - N/A   Partly Cloudy
9:00 PM 83 °F - 59 °F 34% 29.88 in 6 mi WNW 2.3 mph - -   Scattered Clouds
9:00 PM 82.4 °F 82.5 °F 59.0 °F 45% 29.92 in 6.2 mi WNW 2.3 mph - N/A   Partly Cloudy
10:00 PM 82.4 °F 82.0 °F 57.2 °F 42% 29.92 in 6.2 mi Calm Calm - N/A   Partly Cloudy
11:00 PM 80.6 °F 80.5 °F 55.4 °F 42% 29.92 in - Calm Calm - N/A   Clear